Wind_Speed
6 6 5 5 4 4 4 4 5 6 6 7 8 8 9 10 11 12 12 5 4 5 4 4 3 1 0 2 2 2 4 1 3 2 2 6 6 1 6 4 4 6 5 11 11
9 8 7 7 6 6 6 6 6 7 7 8 9 10 11 11 13 12 5 4 5 4 4 4 3 1 1 1 1 4 4 7 4 2 2 6 4 9 4 12 5 9 12 11 11
11 10 9 8 8 8 8 8 8 8 8 9 9 10 10 11 12 1 1 3 5 7 8 7 3 1 1 1 2 3 4 5 4 6 3 4 6 2 4 3 15 16 20 14 9
13 11 11 10 9 9 9 9 9 9 9 9 10 10 10 8 3 2 4 3 4 6 7 6 3 2 1 1 2 0 5 5 2 4 3 3 5 7 9 16 17 17 12 10 8
14 13 12 12 11 11 11 10 10 10 10 11 10 11 10 6 8 8 6 6 7 8 7 6 6 5 3 3 1 3 4 6 10 13 13 10 11 7 21 15 11 5 8 9 10
16 15 14 14 13 12 12 12 12 12 11 11 10 10 9 6 8 9 8 10 10 10 10 7 5 6 3 2 3 2 5 11 12 19 12 5 4 2 4 3 6 7 9 11 10
18 17 17 15 14 13 13 13 13 12 11 11 10 10 12 15 10 8 9 9 9 9 10 9 8 6 4 0 1 2 5 8 10 7 5 5 0 7 6 9 9 7 8 7 9
21 20 18 16 15 15 15 14 12 12 12 11 10 9 9 10 11 12 12 10 9 9 8 6 7 4 2 1 4 3 3 4 4 2 1 4 7 6 8 10 6 3 2 3 5
22 21 19 17 16 16 15 13 12 12 13 12 10 7 7 7 10 12 9 8 9 9 8 6 5 3 3 4 4 5 3 4 8 3 2 3 5 9 16 18 4 7 5 6 6
24 22 19 18 16 16 13 12 12 13 13 11 12 5 12 6 7 8 9 8 6 9 7 5 4 3 3 4 5 6 4 5 5 0 3 3 8 13 23 6 7 11 11 11 12
24 22 19 17 16 15 12 10 9 6 15 10 4 5 2 9 9 9 11 11 9 6 5 3 4 7 13 11 3 2 4 4 3 5 1 6 5 12 14 11 16 15 14 15 17
24 22 19 17 17 16 13 8 8 3 8 14 22 19 13 10 7 13 14 10 7 5 6 4 7 13 4 5 5 2 2 5 6 4 3 6 10 3 10 7 12 16 15 16 17
24 22 19 18 17 18 16 14 10 7 5 8 17 18 19 19 10 15 18 10 5 6 8 8 6 5 7 4 5 4 5 5 8 3 1 3 6 2 6 15 16 15 15 15 16
24 22 20 19 17 20 20 14 9 4 2 6 6 6 10 9 5 13 20 8 4 11 6 5 5 4 4 5 7 4 8 7 3 3 4 1 5 6 5 5 7 13 14 15 16
26 25 24 25 12 18 13 13 10 5 5 3 4 6 10 9 10 5 14 5 6 6 7 7 5 4 5 8 6 7 4 4 2 2 3 4 1 6 6 3 5 9 13 15 16
29 28 26 25 25 17 13 16 12 3 10 5 6 6 5 4 4 6 5 4 3 3 1 6 1 4 6 3 6 5 4 6 4 3 1 7 7 4 5 3 6 12 15 15 15
33 32 32 32 33 21 19 19 2 7 0 6 5 6 5 6 4 5 6 6 6 5 6 1 4 2 3 5 3 4 5 2 4 2 5 3 1 7 4 5 11 16 20 18 16
36 34 35 37 35 29 29 4 9 7 8 4 6 5 8 8 5 6 7 5 6 3 4 7 3 8 4 6 6 6 7 5 7 3 4 2 6 5 1 2 19 27 24 20 17
39 39 41 44 38 37 27 10 11 8 6 9 4 5 5 6 6 5 8 6 9 12 7 6 4 2 3 2 5 5 5 3 5 2 3 4 4 2 3 4 11 19 20 22 20
42 46 45 48 47 46 16 21 10 6 8 5 12 8 11 8 8 8 10 5 5 9 0 5 2 1 1 3 4 4 6 4 2 2 5 4 5 5 7 10 7 10 21 20 19
38 17 23 50 43 24 12 10 6 8 8 8 10 7 7 8 9 7 7 1 5 6 7 5 4 2 3 5 8 2 2 3 3 5 6 2 6 5 11 13 14 19 22 20 21
22 4 20 33 14 4 13 7 8 8 6 3 4 4 9 8 7 7 11 7 14 14 9 5 4 4 8 1 1 3 7 7 5 6 3 1 12 5 6 15 22 23 19 19 19
10 4 23 29 8 3 3 3 2 4 5 5 3 4 2 7 5 7 6 1 14 9 10 8 1 2 6 4 2 4 4 4 4 4 7 6 6 3 5 11 21 21 14 11 17
12 2 3 9 3 6 7 5 5 6 2 4 5 3 4 4 3 7 6 2 2 1 1 9 5 8 13 6 5 5 5 5 5 3 4 12 5 2 4 7 13 15 9 14 19
14 6 10 5 6 6 11 8 12 8 7 12 4 10 10 6 5 6 4 3 4 4 3 4 5 2 1 4 4 3 5 9 8 7 11 8 12 6 10 9 17 18 17 17 19
7 6 7 6 21 15 11 12 15 14 9 5 9 14 11 7 7 8 8 4 5 2 5 1 2 3 2 2 1 4 7 9 10 7 8 9 18 7 7 13 13 12 13 14 14
1 6 6 5 10 13 13 18 17 16 8 6 15 6 15 15 11 4 8 11 8 9 7 6 6 4 7 2 3 8 12 15 10 6 8 11 17 3 6 9 12 13 13 12 11
Wind_Direction
241 240 247 245 250 256 266 275 285 296 302 305 308 311 311 311 309 308 310 274 223 220 238 202 192 185 145 75 53 69 60 176 243 149 275 340 9 326 330 269 288 277 285 304 320
247 247 246 249 252 258 266 275 281 287 294 301 306 309 312 315 313 307 287 254 234 209 184 175 185 186 119 92 104 95 113 216 224 179 273 316 314 323 337 315 316 317 331 317 303
247 248 248 250 257 264 271 278 284 288 293 298 302 306 309 317 321 284 155 142 156 155 155 161 162 152 109 180 227 154 186 197 246 214 254 291 293 309 294 287 307 329 333 335 330
248 249 252 256 260 266 271 275 279 285 289 292 294 296 298 305 305 224 215 193 182 171 169 191 207 169 132 215 220 299 261 245 274 219 302 266 280 299 271 284 312 329 8 31 23
243 248 254 260 266 267 269 271 276 281 284 286 286 287 288 267 254 250 235 223 218 218 221 225 206 178 176 202 195 195 283 282 278 281 283 273 265 261 277 294 314 344 354 349 340
243 247 253 259 261 262 263 265 269 274 278 278 282 281 273 244 253 247 238 234 235 234 227 231 217 196 184 215 179 198 274 283 287 280 278 247 260 232 278 343 346 344 344 338 330
245 249 254 256 257 256 259 263 268 272 277 280 281 278 266 266 260 251 236 230 229 221 222 219 195 194 164 246 316 302 324 327 273 273 209 160 81 228 258 307 334 356 326 318 327
250 251 251 252 253 255 257 260 265 272 274 278 278 274 256 257 250 245 241 228 219 214 212 211 210 213 214 162 14 22 46 347 292 169 56 142 266 275 307 336 357 346 92 28 15
248 249 249 246 246 249 255 263 268 270 270 273 272 247 261 252 235 235 226 220 212 209 206 192 184 165 130 89 6 4 236 218 314 340 89 132 276 272 298 315 33 107 94 85 67
245 244 244 245 243 246 252 262 272 272 264 264 251 259 235 223 210 205 201 189 176 175 157 171 149 84 51 104 225 206 215 239 233 219 40 293 261 275 296 331 131 119 103 92 77
240 240 237 234 235 243 251 267 270 258 232 217 214 216 191 197 192 193 186 173 152 166 153 149 118 205 203 200 198 165 187 227 267 261 317 255 248 274 322 82 120 115 106 94 82
241 238 230 225 227 236 240 229 233 252 294 248 244 241 240 216 205 198 185 179 173 175 119 59 219 230 135 179 205 218 244 260 274 266 164 280 275 12 36 50 124 121 110 103 100
238 233 223 222 224 232 236 235 248 265 268 263 235 237 231 229 224 206 193 191 164 148 192 177 213 171 169 166 161 210 189 222 221 354 269 325 289 167 55 88 105 108 112 108 101
235 226 217 218 224 228 233 229 228 227 282 256 211 213 194 179 230 197 191 182 190 195 171 237 253 182 168 199 148 224 208 205 203 127 224 79 275 301 139 113 92 126 125 120 114
232 227 220 213 207 207 221 207 189 184 283 202 164 166 163 177 140 172 180 183 169 176 136 235 181 175 187 214 157 236 117 154 118 131 57 301 295 259 124 180 178 156 143 136 126
230 226 221 214 213 205 194 176 162 95 243 195 145 160 138 183 160 128 162 161 142 144 214 235 244 184 206 84 150 137 88 53 56 112 293 223 184 266 187 191 162 174 159 148 135
229 224 219 216 215 193 175 163 163 210 17 190 183 165 177 167 178 160 165 171 159 138 216 234 219 194 173 94 77 98 80 327 333 358 230 137 144 247 301 315 185 165 167 160 150
229 224 222 222 215 202 179 170 214 196 199 117 138 117 177 159 214 173 142 190 237 191 127 166 252 166 190 189 175 176 157 168 224 211 255 43 234 253 310 0 159 169 167 163 161
226 225 220 219 215 207 181 210 214 170 190 144 98 140 219 207 161 152 193 199 201 186 174 151 264 127 170 146 148 188 170 165 93 57 45 234 296 266 74 44 140 165 173 180 178
235 221 221 220 215 210 204 210 217 187 148 155 178 176 181 191 161 185 178 204 199 188 85 197 133 158 135 112 29 159 167 90 42 282 255 256 264 223 206 197 191 196 202 197 192
229 207 218 221 218 199 207 219 192 212 185 168 188 165 201 173 179 192 195 242 185 157 140 145 124 226 115 199 185 140 190 67 132 155 191 254 253 212 196 181 187 201 207 213 212
209 214 177 194 185 205 220 182 191 172 172 171 139 153 175 174 170 203 199 211 180 146 159 192 136 168 196 230 338 285 197 166 189 240 258 165 259 8 163 179 182 195 207 226 229
180 126 167 181 198 185 143 185 198 154 168 150 188 215 168 163 177 189 190 343 174 154 160 180 190 53 345 7 22 225 206 151 102 74 202 192 259 17 101 157 193 192 212 239 243
156 134 210 220 138 176 197 203 194 235 218 153 161 106 117 188 234 175 173 58 118 81 41 169 160 178 230 190 134 178 197 180 150 171 178 234 265 202 193 190 198 216 252 268 263
180 173 178 183 220 205 185 190 198 194 211 179 189 201 185 195 179 171 133 118 52 92 106 143 218 120 218 158 144 212 197 182 192 212 213 230 225 185 202 210 225 245 272 263 253
170 155 177 192 200 191 191 194 203 196 171 199 218 197 207 196 195 187 132 162 189 107 151 124 162 89 313 296 15 264 226 199 231 234 250 265 270 248 218 235 244 247 235 228 231
163 143 116 187 183 184 200 208 210 193 197 179 213 191 213 215 227 117 167 158 155 157 167 149 133 126 238 66 66 284 224 212 219 199 210 227 246 150 222 201 233 240 227 232 238
Height
1547 1547 1547 1547 1546 1546 1546 1546 1546 1546 1545 1545 1544 1543 1542 1540 1539 1538 1537 1537 1536 1537 1538 1538 1538 1539 1539 1540 1540 1541 1553 1559 1548 1546 1543 1540 1541 1539 1539 1538 1539 1538 1537 1537 1536
1546 1546 1546 1546 1546 1546 1546 1546 1545 1545 1544 1543 1542 1541 1540 1539 1537 1536 1536 1535 1535 1536 1537 1538 1539 1540 1540 1540 1541 1541 1555 1550 1543 1542 1542 1541 1541 1540 1540 1537 1536 1537 1537 1535 1533
1544 1545 1545 1545 1545 1545 1545 1544 1543 1543 1542 1541 1541 1540 1539 1538 1537 1535 1535 1535 1535 1535 1537 1538 1539 1540 1541 1541 1542 1543 1548 1542 1540 1541 1541 1541 1540 1539 1538 1537 1535 1535 1533 1531 1531
1542 1542 1543 1543 1543 1543 1543 1542 1541 1541 1540 1540 1539 1538 1538 1538 1541 1535 1535 1536 1536 1537 1537 1538 1539 1541 1542 1542 1542 1544 1540 1541 1540 1540 1541 1541 1539 1538 1537 1533 1534 1535 1533 1531 1530
1539 1539 1540 1540 1540 1540 1540 1540 1539 1539 1538 1538 1538 1537 1537 1536 1535 1534 1534 1535 1536 1536 1537 1537 1538 1539 1541 1541 1541 1542 1540 1539 1538 1537 1537 1538 1537 1538 1533 1532 1533 1533 1533 1532 1530
1535 1536 1537 1537 1538 1538 1538 1538 1538 1537 1537 1536 1536 1536 1536 1536 1532 1532 1533 1533 1534 1535 1536 1537 1537 1538 1539 1540 1541 1540 1539 1538 1535 1533 1534 1536 1535 1535 1529 1531 1532 1532 1531 1530 1528
1531 1533 1534 1534 1535 1535 1536 1535 1536 1535 1535 1535 1534 1534 1533 1532 1530 1530 1530 1531 1532 1533 1535 1536 1537 1539 1539 1540 1540 1540 1541 1536 1530 1530 1531 1531 1535 1532 1527 1530 1531 1531 1530 1529 1527
1528 1529 1530 1531 1532 1533 1533 1533 1533 1533 1533 1532 1532 1532 1530 1527 1527 1527 1528 1529 1530 1531 1533 1535 1537 1539 1540 1540 1540 1542 1543 1548 1531 1531 1531 1532 1540 1528 1528 1529 1529 1528 1528 1528 1526
1523 1525 1527 1527 1528 1529 1530 1530 1530 1530 1530 1530 1531 1530 1527 1523 1524 1525 1526 1527 1528 1530 1532 1534 1536 1538 1540 1544 1551 1550 1552 1549 1540 1530 1531 1534 1537 1527 1527 1527 1528 1529 1529 1528 1527
1519 1520 1522 1524 1525 1526 1527 1527 1527 1527 1527 1527 1528 1532 1523 1521 1521 1523 1524 1526 1527 1529 1532 1534 1535 1540 1543 1547 1557 1549 1551 1547 1543 1533 1532 1535 1537 1526 1524 1526 1527 1528 1529 1529 1528
1514 1516 1518 1520 1521 1523 1525 1526 1528 1526 1522 1520 1520 1519 1517 1518 1520 1521 1522 1525 1526 1529 1531 1532 1538 1541 1535 1534 1533 1536 1542 1541 1539 1532 1534 1534 1535 1524 1524 1526 1528 1529 1531 1531 1531
1509 1511 1514 1516 1518 1519 1521 1523 1522 1523 1519 1515 1515 1516 1516 1516 1517 1518 1521 1524 1525 1528 1530 1537 1538 1525 1528 1532 1536 1538 1540 1543 1537 1531 1534 1532 1529 1525 1528 1530 1530 1530 1532 1533 1533
1503 1507 1511 1513 1514 1516 1518 1519 1520 1521 1520 1510 1508 1508 1511 1513 1513 1514 1518 1519 1521 1527 1529 1531 1525 1522 1527 1531 1535 1537 1540 1538 1537 1533 1532 1532 1533 1525 1534 1533 1533 1534 1534 1535 1536
1499 1502 1506 1509 1513 1512 1513 1517 1519 1521 1523 1509 1504 1502 1505 1508 1511 1510 1513 1517 1519 1522 1526 1528 1520 1521 1525 1527 1530 1535 1528 1529 1532 1538 1543 1533 1547 1529 1531 1535 1535 1534 1534 1535 1535
1493 1497 1501 1503 1504 1506 1511 1514 1517 1520 1535 1499 1500 1501 1503 1506 1507 1509 1511 1513 1516 1518 1523 1521 1519 1523 1525 1522 1524 1528 1526 1529 1531 1538 1541 1540 1545 1530 1533 1535 1537 1536 1535 1535 1534
1487 1492 1496 1499 1500 1503 1507 1511 1517 1525 1520 1496 1495 1498 1503 1503 1505 1507 1510 1512 1513 1516 1517 1517 1516 1517 1516 1518 1520 1523 1528 1536 1543 1544 1554 1538 1538 1529 1527 1524 1532 1534 1535 1536 1536
1481 1485 1487 1492 1492 1501 1503 1510 1519 1511 1487 1491 1493 1495 1498 1503 1505 1505 1509 1512 1514 1523 1522 1516 1515 1513 1513 1518 1520 1524 1532 1549 1554 1560 1544 1535 1539 1522 1523 1522 1522 1528 1532 1532 1534
1471 1476 1478 1483 1488 1496 1498 1504 1502 1477 1484 1479 1485 1492 1496 1497 1500 1503 1507 1510 1507 1507 1517 1519 1520 1513 1510 1512 1517 1524 1526 1546 1553 1560 1543 1537 1533 1513 1524 1522 1520 1523 1525 1528 1530
1461 1465 1467 1471 1480 1485 1485 1483 1470 1473 1473 1476 1483 1488 1493 1491 1494 1499 1503 1501 1496 1499 1502 1515 1512 1506 1508 1509 1511 1524 1527 1525 1542 1584 1564 1530 1523 1526 1529 1530 1529 1529 1528 1526 1527
1449 1452 1454 1460 1469 1473 1469 1459 1459 1458 1461 1466 1473 1474 1482 1485 1490 1495 1497 1486 1486 1488 1490 1498 1508 1507 1508 1510 1514 1514 1516 1530 1544 1557 1564 1526 1524 1513 1526 1526 1528 1533 1532 1528 1526
1439 1441 1439 1450 1460 1456 1448 1452 1456 1455 1456 1458 1462 1469 1472 1475 1479 1487 1484 1482 1482 1487 1489 1495 1500 1512 1507 1512 1515 1518 1518 1521 1525 1536 1546 1551 1512 1499 1501 1511 1517 1521 1528 1531 1531
1433 1434 1435 1439 1446 1441 1441 1445 1448 1448 1453 1454 1455 1458 1463 1467 1473 1480 1479 1474 1476 1478 1490 1491 1501 1516 1507 1504 1509 1510 1508 1512 1519 1528 1538 1530 1497 1503 1501 1505 1510 1514 1519 1524 1528
1427 1430 1432 1433 1429 1438 1444 1443 1445 1446 1446 1449 1454 1455 1455 1461 1471 1473 1475 1473 1475 1474 1482 1490 1505 1528 1515 1507 1507 1510 1509 1509 1516 1525 1538 1531 1511 1507 1505 1507 1511 1513 1516 1520 1522
1425 1431 1431 1431 1429 1434 1439 1438 1440 1443 1446 1445 1449 1453 1456 1461 1462 1467 1473 1475 1476 1476 1479 1481 1493 1492 1487 1496 1498 1510 1508 1507 1511 1521 1521 1502 1503 1511 1509 1507 1509 1513 1514 1515 1515
1416 1419 1421 1427 1428 1429 1431 1434 1435 1441 1445 1445 1449 1447 1452 1460 1461 1462 1467 1474 1476 1477 1481 1485 1496 1496 1495 1494 1497 1500 1503 1504 1506 1503 1502 1495 1499 1499 1504 1505 1506 1509 1510 1511 1511
1409 1410 1414 1418 1419 1425 1428 1428 1429 1433 1438 1441 1443 1444 1448 1453 1452 1459 1462 1469 1471 1478 1481 1485 1494 1500 1509 1501 1499 1502 1499 1502 1499 1500 1502 1502 1498 1496 1499 1501 1501 1502 1503 1505 1505
1407 1406 1409 1413 1412 1416 1415 1417 1420 1426 1432 1433 1437 1440 1444 1446 1452 1453 1456 1458 1460 1469 1477 1485 1491 1499 1493 1510 1509 1509 1493 1491 1490 1493 1496 1501 1487 1494 1494 1495 1495 1496 1497 1499 1500